#timestamp,LO_Frequency,Hit,StdDev 
1580011215.6,286047001.4,N
1580011235.5,286047001.4,N
1580011255.3,286047003.5,N
1580011275.2,286047003.9,N
1580011295.9,286047002.8,N
1580011315.7,286047001.9,N
1580011335.6,286047003.1,N
1580011355.4,286047004.3,N
1580011375.2,286047002.6,N
1580011395.1,286046999.8,N
1580011396.0,286046999.8,N
1580011415.8,286047000.8,N
1580011435.7,286047000.8,N
1580011455.5,286047000.2,N
1580011475.3,286046999.8,N
1580011495.2,286047001.5,N
1580011515.0,286047004.0,N
1580011515.9,286047004.0,N
1580011535.8,286047001.7,N
1580011555.6,286047001.5,N
1580011575.4,286047003.5,N
1580011595.3,286047003.8,N
1580011615.1,286047003.8,N
1580011635.9,286047003.1,N
1580011655.7,286047005.8,Y
1580011675.5,286047002.2,P
1580011695.4,286046998.0,P
1580011715.2,286046996.3,N
1580011735.0,286046996.1,N
1580011735.9,286046996.1,N
1580011755.8,286046996.3,N
1580011775.6,286046995.8,N
1580011795.5,286046997.9,N
1580011815.3,286046998.2,N
1580011835.1,286047000.6,N
1580011855.9,286047000.5,N
1580011875.7,286046999.2,N
1580011895.5,286046999.6,N
1580011915.4,286046995.4,N
1580011935.2,286046995.3,N
1580011955.1,286046997.2,N
1580011956.0,286046997.2,N
1580011975.8,286047001.0,N
1580011995.6,286047001.5,N
1580012015.5,286047000.1,N
1580012035.3,286047001.6,N
1580012055.2,286047001.2,N
1580012075.9,286047000.7,N
1580012095.7,286046999.7,N
1580012115.6,286047002.6,N
1580012135.4,286047002.5,N
1580012155.3,286047003.7,N
1580012175.1,286047005.4,N
1580012176.0,286047005.4,N
1580012195.8,286047002.6,N
1580012215.7,286047001.0,N
1580012235.5,286047000.3,N
1580012255.3,286046999.8,N
1580012275.2,286047002.2,N
1580012295.0,286047001.4,N
1580012295.9,286047001.4,N
1580012315.8,286047001.4,N
1580012335.6,286047002.7,N
1580012355.4,286047002.3,N
1580012375.3,286047002.2,N
1580012395.1,286047000.7,N
1580012415.9,286046998.5,N
1580012435.7,286047002.7,N
1580012455.5,286047000.2,N
1580012475.4,286047000.8,N
1580012495.2,286046999.6,N
1580012515.0,286046997.8,N
1580012515.9,286046997.8,N
1580012535.8,286046996.9,N
1580012555.6,286046999.0,N
1580012575.5,286046999.4,N
1580012595.3,286046996.5,N
1580012615.1,286046998.4,N
1580012635.9,286047001.1,N
1580012655.7,286046998.6,N
1580012675.5,286047000.8,N
1580012695.4,286047001.0,N
1580012715.2,286047002.3,N
1580012735.1,286047000.0,N
1580012736.0,286047000.0,N
1580012755.8,286046998.5,N
1580012775.6,286047000.0,N
1580012795.5,286047000.2,N
1580012815.3,286046998.3,N
1580012835.1,286046996.6,N
1580012855.9,286046998.6,N
1580012875.7,286046998.2,N
1580012895.6,286046998.1,N
1580012915.4,286046999.8,N
1580012935.2,286047002.3,N
1580012955.1,286047002.3,N
1580012956.0,286047002.3,N
1580012975.8,286047002.7,N
1580012995.6,286047002.7,N
1580013015.5,286046998.2,N
1580013035.3,286046999.1,N
1580013055.2,286046998.1,N
1580013075.9,286047002.4,N
1580013095.7,286046999.1,N
1580013115.6,286047000.0,N
1580013135.4,286047002.3,N
1580013155.3,286047006.0,Y
1580013175.1,286047005.3,P
1580013176.0,286047005.3,N
1580013195.8,286047003.1,N
1580013215.7,286047002.4,N
1580013235.5,286046998.7,N
1580013255.3,286046999.6,N
1580013275.2,286046999.5,N
1580013295.0,286046999.0,N
1580013295.9,286046999.0,N
1580013315.8,286047000.8,N
1580013335.6,286046998.2,N
1580013355.4,286047001.1,N
1580013375.3,286047000.0,N
1580013395.1,286047000.4,N
1580013415.9,286046999.9,N
1580013435.7,286047001.8,N
1580013455.5,286047003.9,N
1580013475.4,286047003.5,N
1580013495.2,286047005.4,N
1580013515.1,286047005.7,N
1580013516.0,286047005.7,N
1580013535.8,286047003.4,N
1580013555.6,286047004.2,N
1580013575.5,286046999.7,N
1580013595.3,286046999.8,N
1580013615.1,286046999.9,N
1580013635.9,286047000.8,N
1580013655.7,286047000.2,N
1580013675.6,286046998.2,N
1580013695.4,286046998.4,N
1580013715.2,286046998.3,N
1580013735.1,286046998.7,N
1580013736.0,286046998.7,N
1580013755.8,286047001.2,N
1580013775.7,286047001.0,N
1580013795.5,286047000.0,N
1580013815.3,286047000.1,N
1580013835.2,286047000.5,N
1580013855.0,286047001.0,N
1580013855.9,286047001.0,N
1580013875.8,286046998.2,N
1580013895.6,286046997.8,N
1580013915.4,286046995.6,N
1580013935.3,286046995.2,N
1580013955.1,286046997.7,N
1580013975.8,286046995.1,N
1580013995.7,286046995.8,N
1580014015.5,286046993.4,N
1580014035.4,286046994.1,N
1580014055.2,286046993.7,N
1580014075.0,286046996.0,N
1580014075.9,286046996.0,N
1580014095.8,286046994.2,N
1580014115.6,286046994.3,N
1580014135.5,286046993.1,N
1580014155.3,286046988.5,Y
1580014175.1,286046992.3,P
1580014195.9,286046992.3,N
1580014215.7,286046991.5,P
1580014235.6,286046989.1,Y
1580014255.4,286046995.2,P
1580014275.2,286046996.3,P
1580014295.1,286046993.8,P
1580014296.0,286046993.8,Y
1580014315.8,286046998.3,P
1580014335.6,286046999.0,N
1580014355.5,286047000.9,N
1580014375.3,286046998.2,N
1580014395.2,286046998.9,N
1580014415.9,286046999.2,N
1580014435.7,286046997.1,N
1580014455.6,286046997.7,N
1580014475.4,286046997.1,N
1580014495.3,286046997.3,N
1580014515.1,286046993.4,Y
1580014535.8,286046995.3,P
1580014555.7,286046993.4,P
1580014575.5,286046995.8,N
1580014595.4,286046997.3,N
1580014615.2,286046996.6,N
1580014635.0,286046999.3,N
1580014635.9,286046999.3,N
1580014655.8,286047000.4,N
1580014675.6,286046999.8,N
1580014695.4,286046999.7,N
1580014715.3,286047000.6,N
1580014735.1,286047000.3,N
1580014755.9,286046999.4,N
1580014775.7,286046996.6,N
1580014795.5,286046999.2,N
